Weather History for Taunton, MA

Change the Weather History Date:

Sunday, February 23, 2014

  Actual Average Record
Temperature  
Mean Temperature 44 °F -  
Max Temperature 55 °F 42 °F 64 °F (1990)
Min Temperature 32 °F 24 °F -3 °F (1972)
Degree Days  
Heating Degree Days 22    
Moisture  
Dew Point 30 °F    
Average Humidity 60    
Maximum Humidity 88    
Minimum Humidity 34    
Precipitation  
Precipitation 0.00 in - - ()
Sea Level Pressure  
Sea Level Pressure 29.91 in    
Wind  
Wind Speed 4 mph (SSW)    
Max Wind Speed 8 mph    
Max Gust Speed -    
Visibility 10 miles    
Events      
Averages and records for this station are not official NWS values.
T = Trace of Precipitation, MM = Missing Value Source: NWS Daily Summary

Daily Weather History Graph

Daily Weather History Graph

Search for Another Location

Airport:

Trip Planner

Search our weather history database for the weather conditions in past years. The results will help you decide how hot, cold, wet, or windy it might be!

Date:

Astronomy

Feb. 23, 2014 Rise Set
Actual Time 6:28 AM EST 5:27 PM EST
Civil Twilight 6:00 AM EST 5:55 PM EST
Nautical Twilight 5:27 AM EST 6:27 PM EST
Astronomical Twilight 4:55 AM EST 6:59 PM EST
Moon 1:26 AM EST (2/23) 11:23 AM EST (2/23)
Length of Visible Light 11h 55m
Length of Day
10h 58m
Last Quarter, 39% of the Moon is Illuminated
Feb 23
Last Quarter
Mar 1
New
Mar 8
First Quarter
Mar 16
Full
Mar 23
Last Quarter

Hourly Weather History & Observations

Time (EST) Temp. Windchill Dew Point Humidity Pressure Visibility Wind Dir Wind Speed Gust Speed Precip Events Conditions
12:52 AM 42.1 °F 39.2 °F 28.0 °F 58% 30.00 in 10.0 mi SSW 4.6 mph - N/A   Clear
1:52 AM 41.0 °F 37.1 °F 28.0 °F 60% 29.99 in 10.0 mi SSW 5.8 mph - N/A   Clear
2:52 AM 41.0 °F 37.1 °F 28.9 °F 62% 29.99 in 10.0 mi SSW 5.8 mph - N/A   Clear
3:52 AM 41.0 °F 37.1 °F 28.9 °F 62% 29.99 in 10.0 mi SW 5.8 mph - N/A   Clear
4:52 AM 42.1 °F 37.1 °F 28.9 °F 60% 29.99 in 10.0 mi SSW 8.1 mph - N/A   Clear
5:52 AM 39.0 °F 34.8 °F 30.0 °F 70% 29.99 in 10.0 mi SSW 5.8 mph - N/A   Clear
6:52 AM 37.9 °F - 30.9 °F 76% 29.99 in 10.0 mi Calm Calm - N/A   Clear
7:52 AM 36.0 °F - 30.9 °F 82% 29.99 in 10.0 mi Calm Calm - N/A   Clear
8:52 AM 45.0 °F 43.5 °F 32.0 °F 60% 29.99 in 10.0 mi Variable 3.5 mph - N/A   Clear
9:52 AM 48.9 °F - 30.9 °F 50% 29.98 in 10.0 mi Variable 5.8 mph - N/A   Clear
10:52 AM 50.0 °F - 30.9 °F 48% 29.97 in 10.0 mi SW 4.6 mph - N/A   Clear
11:52 AM 53.1 °F - 28.9 °F 40% 29.93 in 10.0 mi SSE 4.6 mph - N/A   Clear
12:52 PM 53.1 °F - 28.9 °F 40% 29.90 in 10.0 mi Variable 3.5 mph - N/A   Clear
1:52 PM 54.0 °F - 28.0 °F 37% 29.87 in 10.0 mi SSW 4.6 mph - N/A   Partly Cloudy
2:52 PM 55.0 °F - 27.0 °F 34% 29.86 in 10.0 mi West 3.5 mph - N/A   Clear
3:52 PM 54.0 °F - 26.1 °F 34% 29.86 in 10.0 mi WSW 5.8 mph - N/A   Clear
4:52 PM 52.0 °F - 30.9 °F 45% 29.85 in 10.0 mi South 4.6 mph - N/A   Clear
5:52 PM 39.0 °F 36.8 °F 32.0 °F 76% 29.83 in 10.0 mi South 3.5 mph - N/A   Clear
6:52 PM 41.0 °F 38.0 °F 30.9 °F 67% 29.81 in 10.0 mi South 4.6 mph - N/A   Mostly Cloudy
7:52 PM 35.1 °F - 30.0 °F 82% 29.82 in 10.0 mi Calm Calm - N/A   Partly Cloudy
8:52 PM 32.0 °F - 28.9 °F 88% 29.82 in 10.0 mi Calm Calm - N/A   Partly Cloudy
9:52 PM 37.0 °F 34.5 °F 30.0 °F 76% 29.81 in 10.0 mi West 3.5 mph - N/A   Overcast
10:52 PM 42.1 °F 40.2 °F 28.0 °F 58% 29.79 in 10.0 mi SW 3.5 mph - N/A   Overcast
11:52 PM 39.0 °F - 30.9 °F 73% 29.78 in 10.0 mi Calm Calm - N/A   Overcast